Location: Unspecified
(0.0000°N, 0.0000°E)
Time: 18:41:09
(UTC+00:00)

deb r/b Ablestar - Pass Details

Date: 21 April 2026
Orbit: 907 x 1192 km, 66.9° (Epoch: 12 May)

Event Time Altitude Azimuth Distance (km) Brightness Sun altitude
Rises 21:27:32 0° 333° (NNW) 4,044 ? -50.6°
Reaches altitude 10° 21:30:20 10° 330° (NNW) 3,061 ? -51.3°
Enters shadow 21:30:35 11° 329° (NNW) 2,977 ? -51.3°
